Findlay, OH

4:15 PM EDT on April 23, 2017 (GMT -0400)
Findlay

Weather History for KFDY - November, 2014

Change the Weather History Date:

Tuesday, November 4, 2014

  Actual Average Record
Temperature  
Mean Temperature 54 °F -  
Max Temperature 61 °F 51 °F 77 °F (2003)
Min Temperature 46 °F 37 °F 16 °F (1951)
Degree Days  
Heating Degree Days 12    
Growing Degree Days 4 (Base 50)    
Moisture  
Dew Point 41 °F    
Average Humidity 66    
Maximum Humidity 89    
Minimum Humidity 37    
Precipitation  
Precipitation 0.10 in - - ()
Sea Level Pressure  
Sea Level Pressure 30.02 in    
Wind  
Wind Speed 15 mph (SW)    
Max Wind Speed 23 mph    
Max Gust Speed 29 mph    
Visibility 9 miles    
Events Rain    
Averages and records for this station are not official NWS values.
T = Trace of Precipitation, MM = Missing Value Source: NWS Daily Summary

Daily Weather History Graph

Daily Weather History Graph

Search for Another Location

Airport or City:

Trip Planner

Search our weather history database for the weather conditions in past years. The results will help you decide how hot, cold, wet, or windy it might be!

Date:

Astronomy

Nov. 04, 2014 Rise Set
Actual Time 7:09 AM EST 5:26 PM EST
Civil Twilight 6:40 AM EST 5:55 PM EST
Nautical Twilight 6:07 AM EST 6:28 PM EST
Astronomical Twilight 5:35 AM EST 7:00 PM EST
Moon 4:13 PM EST (11/4) 4:24 AM EST (11/4)
Length of Visible Light 11h 15m
Length of Day
10h 17m
Waxing Gibbous, 94% of the Moon is Illuminated
Nov 4
Waxing Gibbous
Nov 6
Full
Nov 14
Last Quarter
Nov 22
New
Nov 29
First Quarter

Hourly Weather History & Observations

Time (EST) Temp. Dew Point Humidity Pressure Visibility Wind Dir Wind Speed Gust Speed Precip Events Conditions
12:53 AM 53.1 °F 28.0 °F 38% 30.07 in 10.0 mi SW 12.7 mph - N/A   Clear
1:53 AM 53.1 °F 28.9 °F 40% 30.07 in 10.0 mi SW 12.7 mph - N/A   Mostly Cloudy
2:53 AM 54.0 °F 28.0 °F 37% 30.05 in 10.0 mi SW 11.5 mph - N/A   Clear
3:53 AM 53.1 °F 30.0 °F 41% 30.05 in 10.0 mi SSW 11.5 mph - N/A   Overcast
4:53 AM 53.1 °F 28.9 °F 40% 30.06 in 10.0 mi SSW 13.8 mph - N/A   Mostly Cloudy
5:53 AM 54.0 °F 30.9 °F 41% 30.04 in 10.0 mi SSW 12.7 mph - N/A   Overcast
6:53 AM 54.0 °F 30.9 °F 41% 30.04 in 10.0 mi SSW 13.8 mph - N/A   Overcast
7:53 AM 54.0 °F 32.0 °F 43% 30.04 in 10.0 mi SSW 16.1 mph - N/A   Mostly Cloudy
8:53 AM 54.0 °F 34.0 °F 47% 30.03 in 10.0 mi SSW 16.1 mph - N/A   Clear
9:53 AM 57.9 °F 35.1 °F 42% 30.02 in 10.0 mi SW 19.6 mph 26.5 mph N/A   Overcast
10:53 AM 61.0 °F 36.0 °F 39% 30.01 in 10.0 mi SW 23.0 mph 27.6 mph N/A   Mostly Cloudy
11:53 AM 60.1 °F 37.9 °F 44% 29.99 in 10.0 mi SW 18.4 mph 25.3 mph N/A   Overcast
12:17 PM 60.1 °F 37.9 °F 44% 29.98 in 10.0 mi SW 20.7 mph 27.6 mph N/A   Overcast
12:53 PM 61.0 °F 39.0 °F 44% 29.96 in 10.0 mi SW 17.3 mph 23.0 mph N/A   Overcast
1:53 PM 55.0 °F 45.0 °F 69% 29.97 in 9.0 mi WSW 13.8 mph - 0.00 in Rain Light Rain
2:53 PM 52.0 °F 46.9 °F 83% 29.98 in 3.0 mi WSW 13.8 mph 20.7 mph 0.01 in Rain Light Rain
3:53 PM 52.0 °F 48.9 °F 89% 29.98 in 9.0 mi SSW 16.1 mph - 0.01 in   Overcast
4:29 PM 52.0 °F 48.9 °F 89% 30.00 in 2.5 mi SW 16.1 mph - 0.02 in Rain Light Rain
4:38 PM 52.0 °F 48.9 °F 89% 30.00 in 4.0 mi SW 15.0 mph - 0.03 in Rain Light Rain
4:53 PM 52.0 °F 48.9 °F 89% 29.99 in 6.0 mi SW 13.8 mph - 0.04 in Rain Light Rain
5:53 PM 53.1 °F 50.0 °F 89% 29.98 in 8.0 mi SW 15.0 mph - 0.01 in Rain Light Rain
6:27 PM 53.1 °F 48.9 °F 86% 29.99 in 9.0 mi SW 17.3 mph - 0.01 in Rain Light Rain
6:43 PM 53.1 °F 48.9 °F 86% 30.00 in 9.0 mi SW 17.3 mph 25.3 mph 0.02 in Rain Light Rain
6:53 PM 53.1 °F 48.9 °F 86% 29.99 in 8.0 mi SW 18.4 mph 28.8 mph 0.02 in Rain Light Rain
7:05 PM 53.1 °F 48.9 °F 86% 29.99 in 9.0 mi SW 17.3 mph 26.5 mph 0.01 in Rain Light Rain
7:12 PM 53.1 °F 48.9 °F 86% 29.99 in 9.0 mi SW 15.0 mph - 0.01 in Rain Light Rain
7:29 PM 53.1 °F 48.9 °F 86% 30.00 in 10.0 mi SW 18.4 mph 24.2 mph 0.01 in Rain Light Rain
7:53 PM 53.1 °F 48.9 °F 86% 30.00 in 10.0 mi SW 15.0 mph - 0.01 in   Overcast
8:53 PM 52.0 °F 48.0 °F 86% 30.04 in 10.0 mi West 18.4 mph - N/A   Overcast
9:53 PM 48.9 °F 44.1 °F 83% 30.07 in 10.0 mi West 16.1 mph - N/A   Scattered Clouds
10:53 PM 46.9 °F 43.0 °F 86% 30.09 in 10.0 mi WSW 18.4 mph - N/A   Clear
11:53 PM 46.0 °F 41.0 °F 83% 30.10 in 10.0 mi North - - N/A   Clear